Weather reports worldwide

Advertisment
Alto De Los Leones, Spain (8217): temperature & dewpoint: 06.12.2018 00:00:00 - 12.12.2018 00:00:00 (CET)Alto De Los Leones, Spain (8217): precipitation: 06.12.2018 00:00:00 - 12.12.2018 00:00:00 (CET)
Date & Time tt [°C] td [°C] rr [mm]
12.12.2018 00:00:00 3,5 -5,7 0,0
11.12.2018 23:00:00 3,8 -8,6 0,0
11.12.2018 22:00:00 3,5 -10,3 0,0
11.12.2018 21:00:00 4,6 -10,3 0,0
11.12.2018 20:00:00 5,7 -10,8 0,0
11.12.2018 19:00:00 5,7 -10,3 -
11.12.2018 18:00:00 5,5 -9,4 0,0
11.12.2018 17:00:00 7,1 -9,9 0,0
11.12.2018 16:00:00 8,6 -8,6 0,0
11.12.2018 15:00:00 9,3 -9,4 0,0
11.12.2018 14:00:00 10,1 -9,0 0,0
11.12.2018 13:00:00 9,6 -9,4 -
11.12.2018 12:00:00 9,7 -7,5 0,0
11.12.2018 11:00:00 8,4 -7,1 0,0
11.12.2018 10:00:00 6,1 -8,2 0,0
11.12.2018 09:00:00 5,8 -9,4 0,0
11.12.2018 08:00:00 6,2 -9,0 0,0
11.12.2018 07:00:00 6,7 -9,0 -
11.12.2018 06:00:00 6,0 -9,0 0,0
11.12.2018 05:00:00 5,7 -9,0 0,0
11.12.2018 04:00:00 6,6 -8,6 0,0
11.12.2018 03:00:00 6,9 -8,6 0,0
11.12.2018 02:00:00 7,5 -9,4 0,0
11.12.2018 01:00:00 7,5 -9,9 -
11.12.2018 00:00:00 7,0 -10,8 0,0
10.12.2018 23:00:00 7,4 -10,3 0,0
10.12.2018 22:00:00 8,0 -10,3 0,0
10.12.2018 21:00:00 7,8 -9,9 0,0
10.12.2018 20:00:00 7,5 -9,4 0,0
10.12.2018 19:00:00 6,9 -9,9 -
10.12.2018 18:00:00 6,0 -8,6 0,0
10.12.2018 17:00:00 7,1 -9,9 0,0
10.12.2018 16:00:00 9,4 -10,8 0,0
10.12.2018 15:00:00 9,4 -13,3 0,0
10.12.2018 14:00:00 10,1 -13,3 0,0
10.12.2018 13:00:00 9,7 -12,2 -
10.12.2018 12:00:00 9,3 -13,3 0,0
10.12.2018 11:00:00 9,1 -14,5 0,0
10.12.2018 10:00:00 6,5 -16,5 0,0
10.12.2018 09:00:00 5,5 -17,2 0,0
10.12.2018 08:00:00 5,4 -17,2 0,0
10.12.2018 07:00:00 5,4 -16,5 -
10.12.2018 06:00:00 6,1 -15,8 0,0
10.12.2018 05:00:00 6,0 -15,8 0,0
10.12.2018 04:00:00 6,1 -15,8 0,0
10.12.2018 03:00:00 5,6 -16,5 0,0
10.12.2018 02:00:00 6,4 -16,5 0,0
10.12.2018 01:00:00 6,1 -16,5 -
10.12.2018 00:00:00 5,3 -14,5 0,0
09.12.2018 23:00:00 5,3 -9,9 0,0
09.12.2018 22:00:00 5,3 -5,4 0,0
09.12.2018 21:00:00 4,8 -0,5 0,0
09.12.2018 20:00:00 5,0 -1,0 0,0
09.12.2018 19:00:00 5,4 -1,0 -
09.12.2018 18:00:00 5,5 -1,0 0,0
09.12.2018 17:00:00 8,1 -2,2 0,0
09.12.2018 16:00:00 9,1 -1,7 0,0
09.12.2018 15:00:00 9,8 -0,7 0,0
09.12.2018 14:00:00 9,7 -0,5 0,0
09.12.2018 13:00:00 8,8 -0,3 -
09.12.2018 12:00:00 8,0 -3,9 0,0
09.12.2018 11:00:00 6,8 -5,7 0,0
09.12.2018 10:00:00 6,3 -4,2 0,0
09.12.2018 09:00:00 5,4 -3,3 0,0
09.12.2018 08:00:00 5,1 -2,7 0,0
09.12.2018 07:00:00 4,4 -3,9 -
09.12.2018 06:00:00 3,6 -5,7 0,0
09.12.2018 05:00:00 3,7 -4,2 0,0
09.12.2018 04:00:00 3,7 -3,9 0,0
09.12.2018 03:00:00 3,1 -8,6 0,0
09.12.2018 02:00:00 3,9 -11,7 0,0
09.12.2018 01:00:00 4,8 -12,8 -
09.12.2018 00:00:00 5,4 -12,2 0,0
08.12.2018 23:00:00 5,8 -12,8 0,0
08.12.2018 22:00:00 5,8 -14,5 0,0
08.12.2018 21:00:00 5,1 -15,1 0,0
08.12.2018 20:00:00 5,9 -13,9 0,0
08.12.2018 19:00:00 5,9 -12,2 -
08.12.2018 18:00:00 5,8 -11,7 0,0
08.12.2018 17:00:00 5,7 -8,2 0,0
08.12.2018 16:00:00 6,6 -7,5 0,0
08.12.2018 15:00:00 7,5 -8,2 0,0
08.12.2018 14:00:00 6,1 -4,5 0,0
08.12.2018 13:00:00 3,3 0,9 -
08.12.2018 12:00:00 2,7 0,2 0,0
08.12.2018 11:00:00 2,0 -0,5 0,0
08.12.2018 10:00:00 1,9 -0,5 0,0
08.12.2018 09:00:00 2,0 -0,5 0,0
08.12.2018 08:00:00 2,3 0,0 0,0
08.12.2018 07:00:00 2,3 0,0 -
08.12.2018 06:00:00 2,6 0,2 0,0
08.12.2018 05:00:00 3,0 0,6 0,0
08.12.2018 04:00:00 3,2 0,9 0,0
08.12.2018 03:00:00 3,3 0,9 0,0
08.12.2018 02:00:00 3,6 1,1 0,0
08.12.2018 01:00:00 4,0 1,5 -
08.12.2018 00:00:00 4,2 1,7 0,0
07.12.2018 23:00:00 4,4 1,9 0,0
07.12.2018 22:00:00 4,4 1,9 0,0
07.12.2018 21:00:00 4,6 2,1 0,0
07.12.2018 20:00:00 5,2 2,1 0,0
07.12.2018 19:00:00 6,3 -0,5 -
07.12.2018 18:00:00 7,6 -2,5 0,0
07.12.2018 17:00:00 8,1 -3,6 0,0
07.12.2018 16:00:00 9,7 -4,5 0,0
07.12.2018 15:00:00 10,1 -3,3 0,0
07.12.2018 14:00:00 10,0 -2,0 0,0
07.12.2018 13:00:00 8,4 -2,2 -
07.12.2018 12:00:00 6,8 -4,5 0,0
07.12.2018 11:00:00 5,3 -7,1 0,0
07.12.2018 10:00:00 3,5 -6,7 0,0
07.12.2018 09:00:00 2,5 -5,7 0,0
07.12.2018 08:00:00 2,0 -4,2 0,0
07.12.2018 07:00:00 2,2 -6,0 -
07.12.2018 06:00:00 1,9 -5,1 0,0
07.12.2018 05:00:00 2,1 -3,3 0,0
07.12.2018 04:00:00 1,7 -4,5 0,0
07.12.2018 03:00:00 1,6 -3,6 0,0
07.12.2018 02:00:00 2,3 -0,7 0,0
07.12.2018 01:00:00 2,1 -1,0 -
07.12.2018 00:00:00 2,7 -1,0 0,0
06.12.2018 23:00:00 4,0 -3,6 0,0
06.12.2018 22:00:00 3,7 -2,2 0,0
06.12.2018 21:00:00 4,1 1,1 0,0
06.12.2018 20:00:00 4,3 1,7 0,0
06.12.2018 19:00:00 4,6 1,9 -
06.12.2018 18:00:00 5,2 1,9 0,0
06.12.2018 17:00:00 6,2 1,3 0,0
06.12.2018 16:00:00 8,3 0,9 0,0
06.12.2018 15:00:00 8,6 0,2 0,0
06.12.2018 14:00:00 8,5 1,5 0,0
06.12.2018 13:00:00 6,5 1,3 -
06.12.2018 12:00:00 6,1 3,6 0,0
06.12.2018 11:00:00 6,1 3,6 0,0
06.12.2018 10:00:00 5,4 2,9 0,0
06.12.2018 09:00:00 5,1 2,7 0,0
06.12.2018 08:00:00 5,3 2,9 0,0
06.12.2018 07:00:00 5,3 2,9 -
06.12.2018 06:00:00 4,9 2,5 0,0
06.12.2018 05:00:00 5,1 2,7 0,0
06.12.2018 04:00:00 5,2 2,7 0,0
06.12.2018 03:00:00 5,1 2,7 0,0
06.12.2018 02:00:00 5,2 2,7 0,0
06.12.2018 01:00:00 4,7 2,3 -
06.12.2018 00:00:00 4,9 1,9 0,0

tt = temperature
td = dewpoint
rr = precipitation

Next stations